Location: Fours
(44.3167°N, 6.7000°E)
Time: 14:39:21
(UTC+00:00)

ISS - Pass Details

Date: 03 October 2021
Orbit: 418 x 423 km, 51.6° (Epoch: 19 October)

Event Time Altitude Azimuth Distance (km) Brightness Sun altitude
Rises 18:18:09 0° 301° (WNW) 2,366 1.4 -13.0°
Reaches altitude 10° 18:20:15 10° 301° (WNW) 1,500 0.2 -13.4°
Maximum altitude 18:23:37 88° 35° (NE) 424 -3.8 -14.0°
Enters shadow 18:25:19 27° 120° (ESE) 838 -2.8 -14.3°
